Location: Middlebury
(44.0133°N, 73.1813°W)
Time: 11:23:42
(UTC-05:00)

ISS - Pass Details

Date: 08 December 2021
Orbit: 413 x 422 km, 51.6° (Epoch: 28 January)

Event Time Altitude Azimuth Distance (km) Brightness Sun altitude
Rises 18:05:36 0° 288° (WNW) 2,382 1.1 -19.2°
Reaches altitude 10° 18:08:25 10° 262° (W) 1,509 0.3 -19.7°
Maximum altitude 18:10:19 14° 228° (SW) 1,266 -0.5 -20.0°
Drops below altitude 10° 18:12:13 10° 194° (SSW) 1,498 -0.6 -20.4°
Enters shadow 18:15:29 -2° 166° (SSE) 2,529 0.2 -20.9°
